Date String (YYYY-MM-DD hh:mm:ss) UTC,Instrument flags,Ambient pressure (hPa),Sample flow (lpm),Bypass flow (lpm),Sample temperature (°C),Ambient temperature (°C),ASC tube jacket temperature (°C),LED temperature (°C),Box temperature (°C),Sample RH (%),Span deviation,Mass concentration (μg/m³),Mass concentration (μg/m³),Mass concentration (μg/m³)
DateTimeUTC,F1_M11,P_M11,Q1_M11,Q2_M11,T1_M11,T2_M11,T3_M11,T4_M11,T5_M11,U1_M11,ZSPAN_M11,X0_M11,X2_M11,X1_M11
2022-05-13 22:00:00,,0824.0,4.99,0.00,29.6,28.5,00.0,38.5,31.3,06.1,0000.0,0006.93,0003.39,0002.29
2022-05-13 22:01:00,,0824.1,4.99,0.00,29.6,28.6,00.0,38.5,31.4,06.1,0000.0,0007.04,0003.41,0002.29
2022-05-13 22:02:00,,0824.1,5.00,0.00,29.6,28.7,00.0,38.5,31.4,05.9,0000.0,0007.14,0003.43,0002.31
2022-05-13 22:03:00,,0823.9,5.00,0.00,29.7,28.8,00.0,38.5,31.5,06.0,0000.0,0007.16,0003.45,0002.32
2022-05-13 22:04:00,,0824.0,5.00,0.00,29.7,28.9,00.0,38.6,31.5,06.0,0000.0,0007.31,0003.46,0002.32
2022-05-13 22:05:00,,0824.0,4.99,0.00,29.7,28.9,00.0,38.6,31.5,06.1,0000.0,0007.19,0003.44,0002.32
2022-05-13 22:06:00,,0824.0,5.02,0.00,29.7,29.0,00.0,38.6,31.5,06.2,0000.0,0006.84,0003.42,0002.32
2022-05-13 22:07:00,,0824.1,4.99,0.00,29.8,29.0,00.0,38.6,31.6,06.3,0000.0,0006.55,0003.42,0002.31
2022-05-13 22:08:00,,0824.1,5.01,0.00,29.8,29.0,00.0,38.6,31.6,06.2,0000.0,0006.50,0003.40,0002.30
2022-05-13 22:09:00,,0824.1,5.00,0.00,29.8,26.7,00.0,38.6,27.7,06.0,0000.0,0006.60,0003.41,0002.31
2022-05-13 22:10:00,,0824.1,4.99,0.00,29.6,26.4,00.0,38.6,31.0,06.4,0000.0,0006.72,0003.44,0002.32
2022-05-13 22:11:00,,0824.1,5.00,0.00,29.6,26.6,00.0,38.6,31.1,06.3,0000.0,0006.80,0003.44,0002.30
2022-05-13 22:12:00,,0824.0,5.00,0.00,29.6,26.9,00.0,38.5,31.2,06.4,0000.0,0006.75,0003.42,0002.31
2022-05-13 22:13:00,,0824.0,5.01,0.00,29.6,27.3,00.0,38.5,31.2,06.0,0000.0,0006.87,0003.44,0002.31
2022-05-13 22:14:00,,0824.0,5.00,0.00,29.6,27.6,00.0,38.5,31.3,05.8,0000.0,0006.73,0003.43,0002.31
2022-05-13 22:15:00,,0824.0,5.01,0.00,29.6,27.9,00.0,38.5,31.3,05.3,0000.0,0006.91,0003.46,0002.33
2022-05-13 22:16:00,,0823.9,5.00,0.00,29.6,28.1,00.0,38.5,31.4,05.7,0000.0,0007.31,0003.45,0002.34
2022-05-13 22:17:00,,0823.9,5.01,0.00,29.6,28.3,00.0,38.5,31.4,05.8,0000.0,0007.71,0003.47,0002.34
2022-05-13 22:18:00,,0823.9,4.99,0.00,29.7,28.5,00.0,38.5,31.5,06.0,0000.0,0007.80,0003.48,0002.34
2022-05-13 22:19:00,,0823.9,5.00,0.00,29.7,28.6,00.0,38.5,31.5,05.7,0000.0,0008.52,0003.54,0002.35
2022-05-13 22:20:00,,0824.0,5.00,0.00,29.7,28.7,00.0,38.5,31.5,05.4,0000.0,0008.96,0003.57,0002.35
2022-05-13 22:21:00,,0823.9,5.00,0.00,29.8,28.8,00.0,38.6,31.6,05.4,0000.0,0009.06,0003.60,0002.36
2022-05-13 22:22:00,,0823.9,5.00,0.00,29.8,28.8,00.0,38.6,31.6,05.4,0000.0,0009.12,0003.62,0002.39
2022-05-13 22:23:00,,0824.0,4.99,0.00,29.8,28.9,00.0,38.6,31.6,05.3,0000.0,0009.22,0003.63,0002.40
2022-05-13 22:24:00,,0824.1,5.01,0.00,29.8,29.0,00.0,38.6,31.7,05.6,0000.0,0009.31,0003.62,0002.42
2022-05-13 22:25:00,,0824.1,4.99,0.00,29.9,29.1,00.0,38.6,31.7,05.6,0000.0,0009.32,0003.62,0002.41
2022-05-13 22:26:00,,0824.0,4.99,0.00,29.9,28.7,00.0,38.7,31.6,05.2,0000.0,0009.25,0003.65,0002.40
2022-05-13 22:27:00,,0824.0,5.01,0.00,29.8,26.4,00.0,38.7,31.1,05.6,0000.0,0008.99,0003.66,0002.41
2022-05-13 22:28:00,,0824.0,4.99,0.00,29.7,25.2,00.0,38.6,30.9,05.8,0000.0,0008.68,0003.66,0002.42
2022-05-13 22:29:00,,0823.9,5.00,0.00,29.6,25.6,00.0,38.6,31.0,05.8,0000.0,0008.72,0003.70,0002.44
2022-05-13 22:30:00,,0823.8,5.01,0.00,29.5,26.1,00.0,38.5,31.0,05.7,0000.0,0008.50,0003.67,0002.44
2022-05-13 22:31:00,,0823.7,4.99,0.00,29.5,26.5,00.0,38.5,31.1,05.8,0000.0,0008.11,0003.64,0002.44
2022-05-13 22:32:00,,0823.8,5.00,0.00,29.5,27.0,00.0,38.5,31.2,05.5,0000.0,0008.11,0003.61,0002.43
2022-05-13 22:33:00,,0824.0,5.00,0.00,29.5,27.3,00.0,38.4,31.2,05.7,0000.0,0008.11,0003.61,0002.42
2022-05-13 22:34:00,,0824.0,5.01,0.00,29.5,27.6,00.0,38.4,31.2,05.7,0000.0,0008.08,0003.58,0002.40
2022-05-13 22:35:00,,0824.0,5.00,0.00,29.5,27.9,00.0,38.4,31.3,05.6,0000.0,0007.93,0003.57,0002.39
2022-05-13 22:36:00,,0824.0,5.00,0.00,29.5,28.1,00.0,38.4,31.3,06.2,0000.0,0008.19,0003.55,0002.37
2022-05-13 22:37:00,,0824.2,5.00,0.00,29.5,28.3,00.0,38.4,31.4,06.1,0000.0,0008.20,0003.51,0002.39
2022-05-13 22:38:00,,0824.1,5.00,0.00,29.6,28.4,00.0,38.4,31.4,05.5,0000.0,0008.27,0003.50,0002.38
2022-05-13 22:39:00,,0824.1,5.00,0.00,29.6,28.5,00.0,38.4,31.4,05.3,0000.0,0008.40,0003.51,0002.37
2022-05-13 22:40:00,,0824.1,5.00,0.00,29.6,28.6,00.0,38.5,31.4,05.2,0000.0,0008.37,0003.48,0002.36
2022-05-13 22:41:00,,0824.1,4.98,0.00,29.7,28.7,00.0,38.5,31.5,05.3,0000.0,0008.37,0003.48,0002.38
2022-05-13 22:42:00,,0824.0,5.00,0.00,29.7,28.8,00.0,38.5,31.6,05.7,0000.0,0008.03,0003.50,0002.40
2022-05-13 22:43:00,,0824.1,5.01,0.00,29.7,28.8,00.0,38.5,31.6,05.6,0000.0,0007.86,0003.50,0002.41
2022-05-13 22:44:00,,0824.0,4.99,0.00,29.8,28.9,00.0,38.5,31.6,05.6,0000.0,0007.87,0003.52,0002.41
2022-05-13 22:45:00,,0824.1,5.01,0.00,29.8,29.0,00.0,38.6,31.7,05.8,0000.0,0007.82,0003.54,0002.41
2022-05-13 22:46:00,,0824.1,5.01,0.00,29.8,29.0,00.0,38.6,31.7,05.4,0000.0,0007.87,0003.56,0002.43
2022-05-13 22:47:00,,0824.0,4.98,0.00,29.9,29.1,00.0,38.6,31.7,05.8,0000.0,0007.80,0003.59,0002.45
2022-05-13 22:48:00,,0824.1,5.00,0.00,29.9,29.1,00.0,38.6,31.8,05.9,0000.0,0008.44,0003.59,0002.42
2022-05-13 22:49:00,,0824.1,5.00,0.00,29.9,28.7,00.0,38.7,31.6,05.8,0000.0,0008.49,0003.59,0002.41
2022-05-13 22:50:00,,0824.1,5.00,0.00,29.8,26.3,00.0,38.7,31.1,06.0,0000.0,0008.51,0003.57,0002.40
2022-05-13 22:51:00,,0824.1,5.00,0.00,29.6,25.1,00.0,38.6,30.8,06.2,0000.0,0008.52,0003.56,0002.39
2022-05-13 22:52:00,,0824.0,5.00,0.00,29.6,25.5,00.0,38.6,31.0,05.9,0000.0,0008.46,0003.56,0002.38
2022-05-13 22:53:00,,0824.0,5.00,0.00,29.5,26.0,00.0,38.5,31.1,05.5,0000.0,0008.31,0003.50,0002.35
2022-05-13 22:54:00,,0824.0,5.01,0.00,29.5,26.5,00.0,38.5,31.1,05.7,0000.0,0008.27,0003.47,0002.33
2022-05-13 22:55:00,,0824.1,4.99,0.00,29.5,26.9,00.0,38.5,31.2,06.0,0000.0,0008.51,0003.47,0002.33
2022-05-13 22:56:00,,0824.1,5.00,0.00,29.5,27.3,00.0,38.5,31.2,05.7,0000.0,0008.79,0003.48,0002.34
2022-05-13 22:57:00,,0824.1,5.00,0.00,29.5,27.5,00.0,38.4,31.2,05.9,0000.0,0008.78,0003.48,0002.33
2022-05-13 22:58:00,,0824.1,5.00,0.00,29.5,27.8,00.0,38.4,31.3,06.3,0000.0,0008.79,0003.47,0002.33
2022-05-13 22:59:00,,0824.1,4.99,0.00,29.5,28.0,00.0,38.4,31.3,06.2,0000.0,0008.21,0003.48,0002.34
